1508857200.17,60011,11.44,73788.3,-4.27,-30.17,-34.53,0,*53
1508857201.4,60012,11.44,73790.0,-4.27,-30.33,-34.71,0,*56
1508857202.68,60013,11.44,73790.5,-4.27,-30.39,-34.83,0,*50
1508857203.92,60014,11.44,73788.3,-4.27,-30.23,-34.71,0,*51
1508857205.2,60015,11.44,73790.8,-4.27,-30.39,-34.83,0,*56
1508857206.45,60016,11.44,73792.3,-4.27,-30.23,-34.83,0,*5E
1508857207.67,60017,11.44,73790.3,-4.29,-30.27,-34.77,0,*5E
1508857208.94,60018,11.44,73792.8,-4.27,-30.17,-34.71,0,*5A
1508857210.15,60019,11.44,73790.0,-4.29,-30.11,-34.71,0,*53
1508857211.42,60020,11.44,73790.0,-4.27,-30.05,-34.47,0,*57
1508857212.63,60021,11.44,73794.5,-4.29,-30.11,-34.59,0,*52
1508857213.85,60022,11.44,73788.3,-4.29,-30.23,-34.77,0,*5C
1508857215.06,60023,11.44,73788.5,-4.29,-30.11,-34.59,0,*50
1508857216.27,60024,11.44,73790.5,-4.29,-30.23,-34.59,0,*56
1508857217.49,60025,11.44,73794.3,-4.29,-30.23,-34.71,0,*5D
1508857218.7,60026,11.44,73792.5,-4.29,-30.23,-34.71,0,*5E
1508857219.91,60027,11.44,73792.5,-4.29,-30.23,-34.77,0,*59
1508857221.18,60028,11.44,73792.8,-4.27,-30.17,-34.71,0,*59
1508857222.47,60029,11.44,73794.5,-4.27,-30.05,-34.65,0,*5E
1508857223.68,60030,11.44,73790.0,-4.29,-30.23,-34.59,0,*53
1508857224.9,60031,11.44,73788.3,-4.29,-30.27,-34.77,0,*5A
1508857226.12,60032,11.44,73794.3,-4.29,-30.11,-34.71,0,*5A
1508857227.34,60033,11.44,73792.3,-4.29,-30.27,-34.77,0,*58
1508857228.57,60034,11.44,73796.5,-4.29,-30.39,-34.89,0,*51
1508857229.83,60035,11.44,73796.5,-4.29,-30.73,-35.07,0,*59
1508857231.07,60036,11.44,73794.5,-4.29,-30.39,-34.89,0,*53
1508857232.27,60037,11.44,73786.0,-4.33,-30.45,-34.89,0,*52
1508857233.53,60038,11.44,73784.8,-4.33,-30.55,-35.07,0,*5B
1508857234.77,60039,11.44,73784.0,-4.29,-30.73,-35.13,0,*50
1508857236.03,60040,11.44,73784.8,-4.33,-30.61,-35.07,0,*53
1508857237.23,60041,11.44,73790.8,-4.33,-30.45,-34.89,0,*53
1508857238.45,60042,11.44,73786.8,-4.29,-30.27,-34.89,0,*5F
1508857239.71,60043,11.44,73778.8,-4.33,-30.39,-34.95,0,*57
1508857240.97,60044,11.44,73770.0,-4.33,-30.39,-34.95,0,*50
1508857242.2,60045,11.44,73776.8,-4.33,-30.45,-34.95,0,*5A
1508857243.47,60046,11.44,73778.8,-4.35,-30.61,-35.01,0,*55
1508857244.69,60047,11.44,73776.8,-4.37,-30.61,-35.17,0,*51
1508857245.92,60048,11.44,73780.5,-4.35,-30.67,-35.17,0,*5A
1508857247.17,60049,11.44,73780.0,-4.35,-30.83,-35.29,0,*5C
1508857248.37,60050,11.44,73786.3,-4.37,-31.01,-35.29,0,*5D
1508857249.6,60051,11.44,73784.5,-4.37,-30.83,-35.35,0,*5A
1508857250.86,60052,11.44,73780.3,-4.35,-30.77,-35.17,0,*50
1508857252.08,60053,11.44,73778.3,-4.37,-30.61,-35.13,0,*50
1508857253.34,60054,11.44,73780.8,-4.37,-30.61,-34.95,0,*58
1508857254.54,60055,11.44,73784.8,-4.37,-30.67,-35.13,0,*50
1508857255.78,60056,11.44,73782.5,-4.35,-30.67,-35.17,0,*55
1508857257.0,60057,11.44,73780.5,-4.37,-30.77,-35.17,0,*57
1508857258.23,60058,11.44,73784.3,-4.41,-30.83,-35.23,0,*55
1508857259.5,60059,11.44,73788.0,-4.39,-30.89,-35.53,0,*56
1508857260.76,60060,11.44,73790.0,-4.41,-30.89,-35.35,0,*53
1508857262.0,60061,11.44,73790.5,-4.39,-30.73,-35.17,0,*58
1508857263.26,60062,11.44,73792.5,-4.39,-30.67,-35.07,0,*5F
1508857264.5,60063,11.44,73792.3,-4.41,-30.55,-35.07,0,*50
1508857265.72,60064,11.44,73788.0,-4.41,-30.55,-35.17,0,*56
1508857266.95,60065,11.44,73788.3,-4.41,-30.55,-35.01,0,*50
1508857268.17,60066,11.44,73788.5,-4.41,-30.73,-35.17,0,*50
1508857269.38,60067,11.44,73788.8,-4.41,-30.67,-35.17,0,*54
1508857270.61,60068,11.44,73784.0,-4.41,-30.83,-35.35,0,*51
1508857271.84,60069,11.44,73786.3,-4.41,-30.67,-35.23,0,*5D
1508857273.09,60070,11.44,73786.8,-4.41,-30.73,-35.23,0,*50
1508857274.34,60071,11.44,73782.8,-4.43,-30.95,-35.59,0,*56
1508857275.62,60072,11.44,73786.8,-4.43,-30.73,-35.23,0,*50
1508857276.87,60073,11.44,73790.0,-4.43,-30.73,-35.29,0,*5B
1508857278.09,60074,11.44,73790.5,-4.45,-30.83,-35.29,0,*55
1508857279.3,60075,11.44,73794.0,-4.45,-30.67,-35.29,0,*5E
1508857280.56,60076,11.44,73794.8,-4.43,-30.55,-35.23,0,*50
1508857281.8,60077,11.44,73790.0,-4.45,-30.73,-35.13,0,*50
1508857283.02,60078,11.44,73784.3,-4.45,-30.61,-35.13,0,*5C
1508857284.27,60079,11.44,73794.3,-4.43,-30.61,-35.13,0,*5B
1508857285.55,60080,11.44,73788.0,-4.43,-30.77,-35.41,0,*5D
1508857286.75,60081,11.44,73788.3,-4.45,-30.45,-35.13,0,*5C
1508857287.98,60082,11.44,73786.0,-4.43,-30.27,-34.89,0,*5F
1508857289.24,60083,11.44,73790.8,-4.43,-30.27,-34.95,0,*53
1508857290.47,60084,11.44,73792.3,-4.45,-30.83,-35.53,0,*57
1508857291.68,60085,11.44,73790.8,-4.45,-30.67,-35.29,0,*51
1508857292.9,60086,11.44,73782.5,-4.45,-30.61,-35.17,0,*59
1508857294.11,60087,11.44,73782.8,-4.45,-30.45,-35.13,0,*5A
1508857295.31,60088,11.44,73788.5,-4.45,-30.67,-35.13,0,*55
1508857296.56,60089,11.44,73790.8,-4.43,-30.45,-35.07,0,*57
1508857297.76,60090,11.44,73792.8,-4.45,-30.45,-35.13,0,*5C
1508857298.96,60091,11.44,73792.8,-4.45,-30.33,-35.01,0,*5F
1508857300.17,60092,11.44,73788.8,-4.45,-30.33,-35.01,0,*5C
1508857301.39,60093,11.44,73794.8,-4.47,-30.33,-35.01,0,*5F
1508857302.62,60094,11.44,73794.8,-4.47,-30.27,-35.01,0,*5D
1508857303.85,60095,11.44,73792.0,-4.45,-30.33,-34.95,0,*57
1508857305.08,60096,11.44,73800.5,-4.47,-30.45,-35.01,0,*5B
1508857306.31,60097,11.44,73800.5,-4.49,-30.27,-34.95,0,*5C
1508857307.55,60098,11.44,73802.3,-4.47,-30.23,-34.83,0,*5E
1508857308.77,60099,11.44,73800.5,-4.47,-30.23,-34.77,0,*54
1508857309.97,60100,11.44,73794.8,-4.45,-30.45,-35.01,0,*57
1508857311.2,60101,11.44,73784.5,-4.45,-30.33,-34.95,0,*5B
1508857312.45,60102,11.44,73784.0,-4.49,-30.51,-35.23,0,*5C
1508857313.69,60103,11.44,73786.3,-4.47,-30.51,-35.17,0,*54
1508857314.94,60104,11.44,73790.8,-4.47,-30.51,-35.13,0,*57
1508857316.16,60105,11.44,73780.0,-4.47,-30.33,-35.13,0,*52
1508857317.38,60106,11.44,73784.0,-4.47,-30.45,-35.13,0,*50
1508857318.6,60107,11.44,73780.3,-4.47,-30.45,-35.13,0,*51
1508857319.86,60108,11.44,73782.8,-4.47,-30.27,-34.95,0,*55
1508857321.08,60109,11.44,73786.5,-4.47,-30.23,-34.77,0,*5C
1508857322.3,60110,11.44,73786.5,-4.47,-30.23,-34.77,0,*54
1508857323.53,60111,11.44,73792.5,-4.47,-30.23,-34.77,0,*55
1508857324.75,60112,11.44,73798.5,-4.47,-29.95,-34.59,0,*5F
1508857325.98,60113,11.44,73796.0,-4.47,-30.11,-34.71,0,*50
1508857327.2,60114,11.44,73802.3,-4.47,-29.95,-34.59,0,*59
1508857328.43,60115,11.44,73800.0,-4.47,-29.95,-34.59,0,*58
1508857329.66,60116,11.44,73790.8,-4.45,-30.05,-34.71,0,*52
1508857330.9,60117,11.44,73786.3,-4.47,-30.11,-34.83,0,*59
1508857332.15,60118,11.44,73778.8,-4.47,-30.61,-35.29,0,*50
1508857333.4,60119,11.44,73780.5,-4.47,-30.77,-35.47,0,*5E
1508857334.63,60120,11.44,73784.0,-4.49,-30.51,-35.17,0,*5B
1508857335.85,60121,11.44,73782.8,-4.47,-30.33,-35.17,0,*50
1508857337.07,60122,11.44,73782.8,-4.47,-30.33,-35.13,0,*57
1508857338.3,60123,11.44,73784.8,-4.49,-30.27,-35.07,0,*58
1508857339.55,60124,11.44,73784.8,-4.47,-30.27,-34.95,0,*5B
1508857340.8,60125,11.44,73794.3,-4.47,-30.23,-34.95,0,*5E
1508857342.05,60126,11.44,73792.0,-4.47,-30.23,-34.95,0,*5D
1508857343.27,60127,11.44,73790.5,-4.47,-30.23,-35.01,0,*50
1508857344.5,60128,11.44,73782.3,-4.47,-30.45,-35.01,0,*5F
1508857345.72,60129,11.44,73786.8,-4.47,-30.45,-35.13,0,*5D
1508857346.95,60130,11.44,73792.5,-4.47,-30.27,-35.13,0,*51
1508857348.19,60131,11.44,73794.8,-4.47,-30.23,-34.95,0,*5B
1508857349.4,60132,11.44,73792.8,-4.49,-30.27,-35.01,0,*5E
1508857350.63,60133,11.44,73790.5,-4.47,-30.33,-35.01,0,*54
1508857351.87,60134,11.44,73790.5,-4.49,-30.39,-35.07,0,*51
1508857353.12,60135,11.44,73790.0,-4.49,-30.39,-35.07,0,*50
1508857354.36,60136,11.44,73792.0,-4.51,-30.55,-35.17,0,*51
1508857355.63,60137,11.44,73794.3,-4.51,-30.51,-35.07,0,*55
1508857356.88,60138,11.44,73790.0,-4.47,-30.33,-34.95,0,*53
1508857358.12,60139,11.44,73792.5,-4.49,-30.55,-35.07,0,*56
1508857359.37,60140,11.44,73786.8,-4.49,-30.51,-35.07,0,*5C
1508857360.61,60141,11.44,73786.5,-4.49,-30.39,-35.07,0,*53
1508857361.86,60142,11.44,73786.3,-4.49,-30.39,-35.07,0,*50
1508857363.1,60143,11.44,73786.3,-4.49,-30.51,-35.07,0,*5F
1508857364.31,60144,11.44,73784.3,-4.49,-30.33,-35.01,0,*5A
1508857365.53,60145,11.44,73786.8,-4.49,-30.51,-35.17,0,*58
1508857366.75,60146,11.44,73790.8,-4.49,-30.39,-35.17,0,*55
1508857367.99,60147,11.44,73794.8,-4.51,-30.51,-35.17,0,*53
1508857369.22,60148,11.44,73794.0,-4.51,-30.33,-35.01,0,*5F
1508857370.44,60149,11.44,73794.8,-4.55,-30.45,-35.13,0,*58
1508857371.69,60150,11.44,73784.3,-4.51,-30.33,-35.07,0,*50
1508857372.92,60151,11.44,73780.3,-4.51,-30.27,-34.89,0,*53
1508857374.14,60152,11.44,73778.8,-4.51,-30.27,-34.89,0,*50
1508857375.38,60153,11.44,73782.5,-4.51,-30.27,-35.01,0,*50
1508857376.61,60154,11.44,73786.8,-4.51,-30.33,-35.01,0,*52
1508857377.86,60155,11.44,73784.8,-4.55,-30.33,-34.95,0,*5B
1508857379.14,60156,11.44,73790.0,-4.51,-30.17,-34.65,0,*55
1508857380.39,60157,11.44,73786.8,-4.51,-30.01,-34.77,0,*50
1508857381.65,60158,11.44,73786.8,-4.51,-30.17,-34.77,0,*58
1508857382.9,60159,11.44,73784.0,-4.51,-30.67,-35.23,0,*5E
1508857384.15,60160,11.44,73784.0,-4.55,-30.55,-35.29,0,*5B
1508857385.38,60161,11.44,73790.0,-4.51,-30.33,-35.01,0,*54
1508857386.63,60162,11.44,73786.3,-4.51,-30.17,-34.89,0,*50
1508857387.86,60163,11.44,73788.3,-4.51,-30.27,-35.01,0,*53
1508857389.09,60164,11.44,73788.5,-4.51,-30.27,-35.01,0,*54
1508857390.31,60165,11.44,73790.0,-4.55,-30.33,-34.89,0,*55
1508857391.53,60166,11.44,73786.5,-4.55,-30.33,-34.89,0,*56
1508857392.75,60167,11.44,73788.0,-4.55,-30.23,-34.89,0,*56
1508857393.99,60168,11.44,73788.8,-4.55,-30.23,-34.83,0,*53
1508857395.27,60169,11.44,73794.0,-4.51,-30.17,-34.83,0,*51
1508857396.55,60170,11.44,73788.0,-4.51,-30.01,-34.65,0,*56
1508857397.82,60171,11.44,73788.3,-4.55,-30.05,-34.65,0,*57
1508857399.07,60172,11.44,73788.5,-4.51,-30.01,-34.59,0,*5B
1508857400.31,60173,11.44,73792.8,-4.51,-29.83,-34.47,0,*57
1508857401.59,60174,11.44,73794.8,-4.55,-29.89,-34.65,0,*5E
1508857402.87,60175,11.44,73794.8,-4.51,-30.01,-34.65,0,*53
1508857404.14,60176,11.44,73792.8,-4.55,-30.05,-34.53,0,*55
1508857405.4,60177,11.44,73794.5,-4.51,-30.11,-34.65,0,*50
1508857406.63,60178,11.44,73788.8,-4.51,-29.83,-34.59,0,*53
1508857407.86,60179,11.44,73784.8,-4.51,-29.83,-34.47,0,*5D
1508857409.14,60180,11.44,73786.8,-4.51,-30.01,-34.65,0,*59
1508857410.4,60181,11.44,73786.3,-4.51,-29.95,-34.65,0,*5D
1508857411.64,60182,11.44,73784.3,-4.51,-29.95,-34.47,0,*5E
1508857412.9,60183,11.44,73784.0,-4.55,-29.89,-34.47,0,*56
1508857414.13,60184,11.44,73790.3,-4.51,-29.95,-34.59,0,*57
1508857415.36,60185,11.44,73794.5,-4.51,-29.95,-34.59,0,*56
1508857416.58,60186,11.44,73794.5,-4.51,-29.83,-34.41,0,*5B
1508857417.81,60187,11.44,73786.0,-4.51,-29.83,-34.59,0,*53
1508857419.02,60188,11.44,73790.3,-4.49,-29.95,-34.59,0,*52
1508857420.27,60189,11.44,73790.3,-4.51,-30.01,-34.59,0,*5F
1508857421.51,60190,11.44,73788.3,-4.51,-30.11,-34.83,0,*51
1508857422.77,60191,11.44,73784.0,-4.51,-30.17,-34.77,0,*5D
1508857424.04,60192,11.44,73778.8,-4.51,-30.17,-34.83,0,*55
1508857425.3,60193,11.44,73776.3,-4.51,-30.17,-34.77,0,*5F
1508857426.56,60194,11.44,73782.8,-4.51,-30.17,-35.01,0,*58
1508857427.81,60195,11.44,73782.0,-4.51,-30.11,-34.83,0,*54
1508857429.03,60196,11.44,73782.5,-4.51,-30.11,-34.77,0,*5C
1508857430.28,60197,11.44,73782.5,-4.51,-30.11,-34.83,0,*56
1508857431.54,60198,11.44,73782.3,-4.51,-30.17,-34.77,0,*54
1508857432.78,60199,11.44,73782.3,-4.49,-30.17,-34.83,0,*57
1508857434.01,60200,11.44,73784.0,-4.49,-30.11,-34.65,0,*5A
1508857435.27,60201,11.44,73792.5,-4.51,-30.11,-34.65,0,*52
1508857436.5,60202,11.44,73794.0,-4.49,-30.11,-34.65,0,*58
1508857437.75,60203,11.44,73790.8,-4.47,-30.05,-34.59,0,*5D
1508857438.97,60204,11.44,73794.3,-4.49,-30.01,-34.47,0,*5F
1508857440.2,60205,11.44,73788.5,-4.51,-29.83,-34.59,0,*5A
1508857441.44,60206,11.44,73792.5,-4.51,-29.83,-34.47,0,*56
1508857442.67,60207,11.44,73794.5,-4.51,-29.79,-34.47,0,*52
1508857443.9,60208,11.44,73794.5,-4.51,-29.83,-34.47,0,*58
1508857445.13,60209,11.44,73786.8,-4.51,-29.79,-34.47,0,*5C
1508857446.36,60210,11.44,73776.8,-4.51,-29.79,-34.41,0,*52
1508857447.59,60211,11.44,73782.5,-4.51,-29.95,-34.47,0,*57
1508857448.82,60212,11.44,73788.0,-4.51,-29.79,-34.47,0,*56
1508857450.04,60213,11.44,73788.8,-4.51,-29.79,-34.41,0,*51
1508857451.26,60214,11.44,73790.0,-4.51,-29.79,-34.41,0,*56
1508857452.46,60215,11.44,73788.8,-4.49,-29.79,-34.47,0,*58
1508857453.67,60216,11.44,73790.5,-4.49,-29.95,-34.59,0,*56
1508857454.87,60217,11.44,73790.0,-4.49,-29.79,-34.47,0,*5A
1508857456.11,60218,11.44,73790.3,-4.51,-29.95,-34.47,0,*5E
1508857457.32,60219,11.44,73784.5,-4.49,-29.83,-34.47,0,*51
1508857458.54,60220,11.44,73788.0,-4.49,-30.01,-34.59,0,*56
1508857459.76,60221,11.44,73786.0,-4.49,-30.01,-34.59,0,*57
1508857460.97,60222,11.44,73786.8,-4.49,-29.95,-34.59,0,*51
1508857462.19,60223,11.44,73788.8,-4.49,-30.01,-34.59,0,*55
1508857463.42,60224,11.44,73792.3,-4.49,-30.01,-34.77,0,*5E
1508857464.62,60225,11.44,73790.3,-4.49,-30.11,-34.77,0,*5E
1508857465.87,60226,11.44,73790.0,-4.49,-30.01,-34.65,0,*5F
1508857467.07,60227,11.44,73790.0,-4.49,-30.11,-34.77,0,*5C
1508857468.31,60228,11.44,73790.8,-4.49,-29.95,-34.65,0,*54
1508857469.56,60229,11.44,73788.3,-4.49,-30.01,-34.65,0,*50
1508857470.84,60230,11.44,73790.8,-4.51,-30.17,-34.65,0,*56
1508857472.08,60231,11.44,73790.5,-4.49,-30.17,-34.77,0,*5D
1508857473.31,60232,11.44,73790.8,-4.49,-30.11,-34.65,0,*5B
1508857474.53,60233,11.44,73794.8,-4.49,-30.11,-34.65,0,*5A
1508857475.79,60234,11.44,73788.0,-4.51,-30.01,-34.47,0,*55
1508857477.02,60235,11.44,73788.3,-4.51,-30.11,-34.77,0,*56
1508857478.29,60236,11.44,73792.8,-4.51,-30.01,-34.65,0,*57
1508857479.57,60237,11.44,73792.5,-4.51,-30.01,-34.65,0,*56
1508857480.8,60238,11.44,73792.5,-4.49,-30.01,-34.47,0,*50
1508857482.03,60239,11.44,73792.5,-4.51,-29.95,-34.59,0,*52
1508857483.3,60240,11.44,73784.3,-4.55,-30.01,-34.53,0,*57
1508857484.55,60241,11.44,73786.5,-4.51,-30.01,-34.59,0,*58
1508857485.83,60242,11.44,73786.3,-4.55,-30.01,-34.65,0,*50
1508857487.11,60243,11.44,73786.0,-4.51,-30.01,-34.65,0,*55
1508857488.36,60244,11.44,73790.5,-4.51,-30.01,-34.59,0,*5D
1508857489.61,60245,11.44,73794.5,-4.51,-30.01,-34.59,0,*5C
1508857490.84,60246,11.44,73796.5,-4.51,-29.95,-34.59,0,*5A
1508857492.09,60247,11.44,73796.0,-4.51,-30.01,-34.59,0,*5E
1508857493.34,60248,11.44,73794.0,-4.51,-30.01,-34.59,0,*51
1508857494.59,60249,11.44,73782.8,-4.51,-30.11,-34.65,0,*5E
1508857495.85,60250,11.44,73792.3,-4.51,-30.11,-34.65,0,*56
1508857497.09,60251,11.44,73792.5,-4.55,-30.05,-34.71,0,*53
1508857498.35,60252,11.44,73790.0,-4.51,-30.01,-34.77,0,*56
1508857499.62,60253,11.44,73786.5,-4.55,-30.01,-34.53,0,*55
1508857500.85,60254,11.44,73788.3,-4.51,-29.95,-34.47,0,*56
1508857502.1,60255,11.44,73792.5,-4.51,-30.01,-34.59,0,*5D
1508857503.35,60256,11.44,73790.8,-4.51,-30.01,-34.59,0,*5E
1508857504.6,60257,11.44,73794.8,-4.51,-30.27,-34.83,0,*5C
1508857505.85,60258,11.44,73792.5,-4.51,-30.27,-34.83,0,*53
1508857507.11,60259,11.44,73798.0,-4.51,-30.17,-34.77,0,*5A
1508857508.38,60260,11.44,73798.5,-4.55,-30.39,-34.95,0,*54
1508857509.61,60261,11.44,73794.5,-4.51,-30.27,-34.77,0,*52
1508857510.83,60262,11.44,73796.0,-4.55,-30.33,-34.89,0,*51
1508857512.09,60263,11.44,73796.8,-4.51,-30.27,-34.65,0,*53
1508857513.31,60264,11.44,73796.5,-4.55,-30.23,-34.71,0,*51
1508857514.55,60265,11.44,73796.5,-4.55,-30.23,-34.83,0,*5D
1508857515.81,60266,11.44,73798.5,-4.51,-30.11,-34.65,0,*53
1508857517.05,60267,11.44,73796.8,-4.55,-30.23,-34.83,0,*5F
1508857518.3,60268,11.44,73798.8,-4.55,-30.17,-34.71,0,*5A
1508857519.58,60269,11.44,73794.0,-4.55,-30.17,-34.65,0,*5E
1508857520.8,60270,11.44,73796.0,-4.57,-30.23,-34.83,0,*5B
1508857522.02,60271,11.44,73794.5,-4.55,-30.23,-34.71,0,*55
1508857523.26,60272,11.44,73796.0,-4.55,-30.23,-34.83,0,*5B
1508857524.48,60273,11.44,73794.8,-4.55,-30.33,-34.89,0,*51
1508857525.72,60274,11.44,73794.0,-4.55,-30.23,-34.83,0,*5D
1508857526.97,60275,11.44,73792.5,-4.57,-30.39,-34.95,0,*52
1508857528.16,60276,11.44,73792.5,-4.57,-30.33,-34.89,0,*56
1508857529.41,60277,11.44,73788.0,-4.57,-30.39,-34.95,0,*50
1508857530.63,60278,11.44,73794.3,-4.57,-30.61,-35.13,0,*5D
1508857531.86,60279,11.44,73792.3,-4.57,-30.55,-35.13,0,*5B
1508857533.08,60280,11.44,73792.5,-4.57,-30.33,-34.95,0,*52
1508857534.35,60281,11.44,73792.0,-4.59,-30.39,-34.95,0,*57
1508857535.6,60282,11.44,73792.3,-4.59,-30.39,-35.01,0,*58
1508857536.81,60283,11.44,73788.5,-4.59,-30.45,-35.17,0,*55
1508857538.03,60284,11.44,73792.0,-4.57,-30.45,-35.07,0,*5D
1508857539.26,60285,11.44,73794.3,-4.59,-30.45,-35.13,0,*57
1508857540.5,60286,11.44,73794.8,-4.57,-30.51,-35.07,0,*5A
1508857541.75,60287,11.44,73792.5,-4.59,-30.39,-35.01,0,*5D
1508857542.99,60288,11.44,73794.8,-4.59,-30.45,-34.95,0,*55
1508857544.24,60289,11.44,73792.0,-4.59,-30.39,-34.77,0,*53
1508857545.48,60290,11.44,73794.3,-4.59,-30.39,-34.77,0,*5B
1508857546.7,60291,11.44,73792.3,-4.59,-30.23,-34.77,0,*51
1508857547.96,60292,11.44,73794.8,-4.59,-30.27,-34.95,0,*5A
1508857549.21,60293,11.44,73790.5,-4.59,-30.27,-34.95,0,*5B
1508857550.47,60294,11.44,73792.5,-4.59,-30.27,-34.95,0,*5C
1508857551.67,60295,11.44,73794.0,-4.61,-30.27,-34.89,0,*5B
1508857552.88,60296,11.44,73796.3,-4.61,-30.27,-34.89,0,*58
1508857554.08,60297,11.44,73794.8,-4.61,-30.23,-34.77,0,*5C
1508857555.29,60298,11.44,73792.3,-4.61,-30.27,-34.77,0,*57
1508857556.49,60299,11.44,73792.5,-4.61,-30.23,-34.77,0,*52
1508857557.69,60300,11.44,73790.5,-4.61,-30.23,-34.77,0,*53
1508857558.9,60301,11.44,73794.3,-4.61,-30.27,-34.71,0,*50
1508857560.1,60302,11.44,73794.0,-4.61,-30.23,-34.77,0,*51
1508857561.3,60303,11.44,73788.3,-4.61,-30.23,-34.71,0,*56
1508857562.5,60304,11.44,73790.5,-4.61,-30.23,-34.71,0,*51
1508857563.7,60305,11.44,73798.8,-4.61,-30.23,-34.77,0,*56
1508857564.9,60306,11.44,73792.8,-4.61,-30.23,-34.59,0,*59
1508857566.11,60307,11.44,73792.8,-4.61,-29.95,-34.59,0,*5D
1508857567.33,60308,11.44,73794.8,-4.61,-30.05,-34.59,0,*53
1508857568.56,60309,11.44,73794.0,-4.61,-30.05,-34.59,0,*52
1508857569.78,60310,11.44,73794.5,-4.59,-30.11,-34.71,0,*5E
1508857571.01,60311,11.44,73792.5,-4.61,-30.05,-34.77,0,*57
1508857572.21,60312,11.44,73794.3,-4.61,-30.23,-34.89,0,*51
1508857573.41,60313,11.44,73794.0,-4.61,-30.11,-34.77,0,*50
1508857574.65,60314,11.44,73794.8,-4.59,-30.39,-34.77,0,*56
1508857575.88,60315,11.44,73794.8,-4.59,-30.11,-34.89,0,*5C
1508857577.1,60316,11.44,73794.8,-4.59,-30.11,-34.71,0,*58
1508857578.3,60317,11.44,73796.5,-4.61,-30.23,-34.77,0,*55
1508857579.5,60318,11.44,73794.0,-4.61,-30.11,-34.77,0,*5B
1508857580.7,60319,11.44,73782.5,-4.61,-30.23,-34.89,0,*5A
1508857581.92,60320,11.44,73780.5,-4.59,-30.23,-34.77,0,*5A
1508857583.15,60321,11.44,73780.5,-4.59,-30.11,-34.59,0,*56
1508857584.37,60322,11.44,73780.8,-4.59,-30.11,-34.77,0,*59
1508857585.62,60323,11.44,73780.0,-4.59,-30.23,-34.95,0,*55
1508857586.87,60324,11.44,73782.3,-4.59,-30.23,-34.95,0,*52
1508857588.12,60325,11.44,73786.5,-4.59,-30.23,-34.95,0,*53
1508857589.32,60326,11.44,73792.5,-4.61,-30.27,-34.89,0,*52
1508857590.53,60327,11.44,73790.8,-4.61,-30.27,-34.89,0,*53
1508857591.76,60328,11.44,73784.3,-4.61,-30.27,-34.95,0,*51
1508857592.97,60329,11.44,73778.5,-4.61,-30.27,-35.01,0,*5C
1508857594.18,60330,11.44,73784.5,-4.61,-30.27,-35.01,0,*54
1508857595.39,60331,11.44,73780.8,-4.61,-30.27,-34.89,0,*54
1508857596.62,60332,11.44,73780.8,-4.61,-30.27,-34.95,0,*5A
1508857597.85,60333,11.44,73784.3,-4.61,-30.23,-34.95,0,*5F
1508857599.1,60334,11.44,73786.5,-4.61,-30.39,-34.95,0,*53
1508857600.35,60335,11.44,73788.5,-4.63,-30.33,-34.95,0,*5A
1508857601.55,60336,11.44,73790.3,-4.61,-30.23,-34.89,0,*57
1508857602.8,60337,11.44,73792.8,-4.63,-30.33,-34.95,0,*58
1508857604.04,60338,11.44,73794.3,-4.63,-30.33,-34.83,0,*50
1508857605.25,60339,11.44,73792.0,-4.61,-30.27,-34.77,0,*5D
1508857606.5,60340,11.44,73786.8,-4.63,-30.27,-34.83,0,*5A
1508857607.73,60341,11.44,73778.0,-4.61,-30.27,-34.95,0,*5E
1508857608.96,60342,11.44,73776.0,-4.63,-30.33,-35.01,0,*56
1508857610.16,60343,11.44,73780.0,-4.61,-30.27,-34.89,0,*51
1508857611.39,60344,11.44,73786.0,-4.61,-30.61,-35.29,0,*5F
1508857612.63,60345,11.44,73776.5,-4.61,-30.61,-35.29,0,*5E
1508857613.88,60346,11.44,73782.3,-4.63,-30.83,-35.41,0,*5D
1508857615.15,60347,11.44,73782.5,-4.63,-30.89,-35.53,0,*55
1508857616.38,60348,11.44,73784.8,-4.63,-31.05,-35.59,0,*55
1508857617.65,60349,11.44,73784.0,-4.63,-30.73,-35.35,0,*5E
1508857618.9,60350,11.44,73786.0,-4.63,-30.67,-35.23,0,*54
1508857620.15,60351,11.44,73788.3,-4.63,-30.83,-35.35,0,*58
1508857621.4,60352,11.44,73790.8,-4.63,-30.83,-35.35,0,*5B
1508857622.63,60353,11.44,73790.0,-4.65,-30.73,-35.17,0,*53
1508857623.88,60354,11.44,73790.5,-4.65,-30.55,-35.23,0,*57
1508857625.12,60355,11.44,73792.8,-4.65,-30.55,-35.23,0,*56
1508857626.4,60356,11.44,73794.5,-4.67,-30.89,-35.35,0,*51
1508857627.65,60357,11.44,73792.0,-4.65,-30.55,-35.23,0,*54
1508857628.91,60358,11.44,73798.8,-4.67,-30.73,-35.29,0,*57
1508857630.18,60359,11.44,73798.8,-4.67,-30.61,-35.23,0,*5F
1508857631.42,60360,11.44,73800.8,-4.65,-30.61,-35.29,0,*5D
1508857632.68,60361,11.44,73802.8,-4.67,-30.73,-35.29,0,*5D
1508857633.96,60362,11.44,73806.5,-4.67,-30.77,-35.41,0,*54
1508857635.24,60363,11.44,73804.5,-4.67,-30.61,-35.41,0,*52
1508857636.5,60364,11.44,73806.0,-4.67,-30.73,-35.29,0,*58
1508857637.78,60365,11.44,73806.3,-4.67,-30.73,-35.41,0,*57
1508857639.06,60366,11.44,73802.0,-4.67,-30.77,-35.41,0,*50
1508857640.3,60367,11.44,73798.5,-4.65,-30.83,-35.35,0,*5B
1508857641.58,60368,11.44,73796.8,-4.69,-30.77,-35.41,0,*50
1508857642.83,60369,11.44,73792.0,-4.67,-30.89,-35.59,0,*57
1508857644.11,60370,11.44,73794.8,-4.67,-30.95,-35.65,0,*5D
1508857645.4,60371,11.44,73786.8,-4.67,-31.11,-35.65,0,*51
1508857646.68,60372,11.44,73780.5,-4.67,-31.11,-35.65,0,*52
1508857647.91,60373,11.44,73784.8,-4.67,-31.05,-35.77,0,*55
1508857649.14,60374,11.44,73782.0,-4.69,-31.05,-35.77,0,*5C
1508857650.41,60375,11.44,73786.5,-4.69,-31.11,-35.77,0,*58
1508857651.63,60376,11.44,73788.3,-4.71,-31.05,-35.65,0,*54
1508857652.86,60377,11.38,73786.5,-4.71,-31.11,-35.71,0,*55
1508857654.11,60378,11.44,73788.3,-4.69,-30.95,-35.59,0,*54
1508857655.38,60379,11.44,73784.5,-4.69,-30.95,-35.65,0,*5A
1508857656.61,60380,11.44,73780.0,-4.71,-31.01,-35.83,0,*51
1508857657.84,60381,11.44,73780.8,-4.71,-31.29,-35.83,0,*5A
1508857659.07,60382,11.44,73780.5,-4.71,-31.29,-35.83,0,*59
1508857660.27,60383,11.44,73780.5,-4.71,-31.17,-35.71,0,*58
1508857661.5,60384,11.44,73788.0,-4.71,-31.11,-35.71,0,*59
1508857662.69,60385,11.44,73788.0,-4.71,-31.01,-35.71,0,*59
1508857663.95,60386,11.44,73786.5,-4.71,-31.11,-35.65,0,*5E
1508857665.19,60387,11.44,73786.0,-4.73,-31.01,-35.65,0,*5C
1508857666.42,60388,11.44,73788.0,-4.73,-31.17,-35.71,0,*51
1508857667.71,60389,11.44,73788.5,-4.73,-30.95,-35.53,0,*5B
1508857668.98,60390,11.44,73794.5,-4.73,-30.95,-35.65,0,*56
1508857670.21,60391,11.44,73792.5,-4.77,-31.01,-35.59,0,*50
1508857671.49,60392,11.44,73792.0,-4.73,-30.95,-35.53,0,*51
1508857672.74,60393,11.44,73786.5,-4.73,-31.01,-35.65,0,*59
1508857673.97,60394,11.44,73778.5,-4.77,-31.01,-35.71,0,*5F
1508857675.23,60395,11.44,73782.0,-4.77,-30.89,-35.59,0,*55
1508857676.46,60396,11.44,73792.0,-4.77,-31.01,-35.59,0,*57
1508857677.7,60397,11.44,73790.5,-4.77,-31.17,-35.77,0,*5D
1508857678.92,60398,11.44,73794.0,-4.77,-31.01,-35.59,0,*59
1508857680.15,60399,11.44,73794.3,-4.77,-31.05,-35.59,0,*5C
1508857681.39,60400,11.44,73790.3,-4.77,-31.01,-35.77,0,*53
1508857682.62,60401,11.44,73786.8,-4.77,-31.05,-35.71,0,*50
1508857683.86,60402,11.44,73784.5,-4.77,-31.17,-35.77,0,*56
1508857685.1,60403,11.44,73786.8,-4.79,-31.11,-35.77,0,*5F
1508857686.34,60404,11.44,73784.3,-4.79,-31.11,-35.77,0,*58
1508857687.59,60405,11.44,73778.8,-4.79,-31.11,-35.65,0,*5A
1508857688.86,60406,11.44,73778.5,-4.79,-31.11,-35.83,0,*51
1508857690.1,60407,11.44,73782.3,-4.79,-31.23,-35.77,0,*5A
1508857691.34,60408,11.44,73780.8,-4.79,-31.23,-35.77,0,*55
1508857692.6,60409,11.44,73776.8,-4.81,-31.23,-35.77,0,*53
1508857693.87,60410,11.44,73776.8,-4.79,-31.39,-35.95,0,*5B
1508857695.13,60411,11.44,73776.5,-4.81,-31.11,-35.77,0,*5B